DLH44K EDDF-KMCI

Flight info

Callsign DLH44K
Flight time N/A
Altitude 34000
Route OBOKA5G/25C OBOKA Z28 DIBIR DCT RAVLO Y70 BATLI UY250 RIMTO L46 GETNO DCT BELZU DCT KUGUR DCT BEGID/M085F340 DCT 57N022W 57N031W 57N040W 56N048W DCT ENNSO/N0491F340 N776B OMTOL N736B MT J545 YVO Q923 HOCKE Q824 FNT J547 OBK J100 DBQ J144 DSM DCT BLWRS RUDDH3
Aircraft A35K/H-SDE2E3GHIJ3J4J5LM1ORWXY/LB1D1

Departure

Time 2026-05-06 23:05
Airport Frankfurt Main Airport (EDDF)

Arrival

Time N/A
Airport Kansas City International Airport (KMCI)
Time Latitude Longitude Altitude Speed Heading
2026-05-06 22:21 50.03181 8.57417 362 ft 0 kts 205°
2026-05-06 22:52 50.03184 8.57418 362 ft 2 kts 205°
2026-05-06 22:52 50.03207 8.57435 367 ft 4 kts 205°
2026-05-06 22:53 50.03229 8.57451 361 ft 2 kts 205°
2026-05-06 22:53 50.03252 8.57463 360 ft 4 kts 181°
2026-05-06 22:53 50.03273 8.57454 360 ft 4 kts 122°
2026-05-06 22:53 50.03271 8.57464 360 ft 4 kts 115°
2026-05-06 22:54 50.03264 8.57488 360 ft 0 kts 115°
2026-05-06 22:57 50.03263 8.57490 360 ft 1 kts 115°
2026-05-06 22:58 50.03261 8.57498 360 ft 2 kts 115°
2026-05-06 22:58 50.03252 8.57526 360 ft 4 kts 117°
2026-05-06 22:58 50.03238 8.57571 360 ft 6 kts 114°
2026-05-06 22:58 50.03227 8.57638 368 ft 7 kts 85°
2026-05-06 22:59 50.03257 8.57692 360 ft 7 kts 21°
2026-05-06 22:59 50.03306 8.57689 369 ft 8 kts 346°
2026-05-06 22:59 50.03360 8.57661 368 ft 9 kts 339°
2026-05-06 22:59 50.03422 8.57625 369 ft 10 kts 343°
2026-05-06 23:00 50.03480 8.57659 368 ft 9 kts 56°
2026-05-06 23:00 50.03506 8.57759 361 ft 11 kts 69°
2026-05-06 23:00 50.03532 8.57865 366 ft 10 kts 69°
2026-05-06 23:00 50.03559 8.57974 364 ft 12 kts 69°
2026-05-06 23:01 50.03588 8.58099 369 ft 13 kts 70°
2026-05-06 23:01 50.03621 8.58238 372 ft 15 kts 70°
2026-05-06 23:01 50.03658 8.58393 364 ft 16 kts 70°
2026-05-06 23:01 50.03697 8.58561 371 ft 17 kts 70°
2026-05-06 23:02 50.03742 8.58723 372 ft 13 kts 46°
2026-05-06 23:02 50.03797 8.58730 374 ft 7 kts 343°
2026-05-06 23:02 50.03835 8.58711 370 ft 5 kts 341°
2026-05-06 23:02 50.03858 8.58698 376 ft 2 kts 341°
2026-05-06 23:03 50.03869 8.58692 372 ft 1 kts 340°
2026-05-06 23:03 50.03871 8.58691 372 ft 0 kts 340°
2026-05-06 23:03 50.03873 8.58690 372 ft 1 kts 340°
2026-05-06 23:03 50.03912 8.58668 376 ft 10 kts 340°
2026-05-06 23:04 50.03976 8.58628 376 ft 9 kts 327°
2026-05-06 23:04 50.03979 8.58553 375 ft 7 kts 252°
2026-05-06 23:04 50.03977 8.58545 375 ft 0 kts 251°
2026-05-06 23:04 50.03926 8.58318 376 ft 55 kts 250°
2026-05-06 23:05 50.03719 8.57453 368 ft 115 kts 250°
2026-05-06 23:05 50.03379 8.56028 364 ft 165 kts 249°
2026-05-06 23:05 50.02933 8.54235 740 ft 179 kts 249°
2026-05-06 23:05 50.02465 8.52476 1533 ft 173 kts 250°
2026-05-06 23:06 50.02124 8.50710 2108 ft 174 kts 267°
2026-05-06 23:06 50.02311 8.48854 2561 ft 175 kts 292°
2026-05-06 23:06 50.02706 8.47041 3008 ft 180 kts 287°
2026-05-06 23:06 50.02949 8.45090 3392 ft 189 kts 277°
2026-05-06 23:07 50.02874 8.42966 3648 ft 207 kts 260°
2026-05-06 23:07 50.02550 8.40677 3833 ft 226 kts 259°
2026-05-06 23:07 50.02222 8.38177 4043 ft 247 kts 260°
2026-05-06 23:07 50.01904 8.35488 4032 ft 255 kts 260°
2026-05-06 23:08 50.01595 8.32771 4008 ft 255 kts 261°
2026-05-06 23:08 50.01322 8.30053 4006 ft 254 kts 265°
2026-05-06 23:08 50.01461 8.27328 4063 ft 255 kts 287°
2026-05-06 23:08 50.02123 8.24759 4517 ft 258 kts 294°
2026-05-06 23:09 50.02873 8.22228 5224 ft 258 kts 295°
2026-05-06 23:09 50.03623 8.19701 6006 ft 258 kts 294°
2026-05-06 23:09 50.04377 8.17148 6673 ft 262 kts 294°
2026-05-06 23:09 50.05137 8.14555 7354 ft 265 kts 293°
2026-05-06 23:10 50.05975 8.11995 8072 ft 268 kts 302°
2026-05-06 23:10 50.07089 8.09639 8801 ft 271 kts 307°
2026-05-06 23:10 50.08266 8.07375 9505 ft 275 kts 307°
2026-05-06 23:10 50.09479 8.05045 10155 ft 281 kts 307°
2026-05-06 23:11 50.10743 8.02598 10500 ft 298 kts 307°
2026-05-06 23:11 50.12098 7.99968 10833 ft 316 kts 307°
2026-05-06 23:11 50.13490 7.97263 11151 ft 332 kts 307°
2026-05-06 23:11 50.14968 7.94387 11485 ft 348 kts 307°
2026-05-06 23:12 50.16514 7.91375 11817 ft 362 kts 307°
2026-05-06 23:12 50.18106 7.88272 12323 ft 370 kts 307°
2026-05-06 23:12 50.19723 7.85113 12939 ft 375 kts 307°
2026-05-06 23:12 50.21356 7.81917 13591 ft 379 kts 307°
2026-05-06 23:13 50.22998 7.78697 14258 ft 379 kts 308°
2026-05-06 23:13 50.24712 7.75544 14810 ft 384 kts 314°
2026-05-06 23:13 50.26840 7.72969 15338 ft 390 kts 329°
2026-05-06 23:13 50.29297 7.71117 15887 ft 395 kts 335°
2026-05-06 23:14 50.31837 7.69401 16424 ft 399 kts 335°
2026-05-06 23:14 50.34399 7.67673 16965 ft 403 kts 335°
2026-05-06 23:14 50.36987 7.65917 17522 ft 407 kts 335°
2026-05-06 23:14 50.39598 7.64140 18041 ft 411 kts 335°
2026-05-06 23:15 50.42237 7.62330 18561 ft 416 kts 334°
2026-05-06 23:15 50.44892 7.60502 19079 ft 419 kts 335°
2026-05-06 23:15 50.47566 7.58661 19639 ft 422 kts 335°
2026-05-06 23:15 50.50265 7.56799 20184 ft 425 kts 334°
2026-05-06 23:16 50.52979 7.54922 20726 ft 428 kts 335°
2026-05-06 23:16 50.55682 7.52935 21276 ft 430 kts 330°
2026-05-06 23:16 50.58256 7.50501 21807 ft 433 kts 326°
2026-05-06 23:16 50.60795 7.47910 22346 ft 436 kts 325°
2026-05-06 23:17 50.63341 7.45291 22875 ft 440 kts 326°
2026-05-06 23:17 50.65920 7.42640 23295 ft 446 kts 325°
2026-05-06 23:17 50.68535 7.39948 23724 ft 451 kts 325°
2026-05-06 23:17 50.71166 7.37235 24217 ft 453 kts 325°
2026-05-06 23:18 50.73690 7.34262 24654 ft 455 kts 317°
2026-05-06 23:18 50.75875 7.30643 25119 ft 455 kts 308°
2026-05-06 23:18 50.77790 7.26731 25550 ft 458 kts 305°
2026-05-06 23:18 50.79653 7.22630 25989 ft 461 kts 304°
2026-05-06 23:19 50.81486 7.18455 26438 ft 463 kts 303°
2026-05-06 23:19 50.83316 7.14246 26856 ft 466 kts 303°
2026-05-06 23:19 50.85158 7.10017 27277 ft 469 kts 303°
2026-05-06 23:19 50.87020 7.05764 27723 ft 472 kts 303°
2026-05-06 23:20 50.88901 7.01485 28159 ft 474 kts 304°
2026-05-06 23:20 50.90794 6.97201 28564 ft 476 kts 304°
2026-05-06 23:20 50.92703 6.92894 28940 ft 479 kts 303°
2026-05-06 23:20 50.94620 6.88558 29312 ft 481 kts 303°
2026-05-06 23:21 50.96546 6.84190 29674 ft 484 kts 303°
2026-05-06 23:21 50.98478 6.79802 30017 ft 486 kts 303°
2026-05-06 23:21 51.00411 6.75404 30379 ft 486 kts 303°
2026-05-06 23:21 51.02343 6.70999 30806 ft 485 kts 303°
2026-05-06 23:22 51.04266 6.66607 31209 ft 484 kts 303°
2026-05-06 23:22 51.06188 6.62211 31595 ft 483 kts 304°
2026-05-06 23:22 51.08097 6.57838 32077 ft 480 kts 304°
2026-05-06 23:22 51.09998 6.53483 32437 ft 480 kts 304°
2026-05-06 23:23 51.11902 6.49113 32726 ft 480 kts 304°
2026-05-06 23:23 51.13798 6.44744 33045 ft 480 kts 303°
2026-05-06 23:23 51.15694 6.40363 33361 ft 480 kts 303°
2026-05-06 23:23 51.17581 6.35990 33709 ft 478 kts 303°
2026-05-06 23:24 51.19462 6.31627 34059 ft 476 kts 303°
2026-05-06 23:24 51.21336 6.27278 34270 ft 477 kts 303°
2026-05-06 23:24 51.23217 6.22906 34472 ft 477 kts 303°
2026-05-06 23:24 51.25092 6.18543 34683 ft 477 kts 303°
2026-05-06 23:25 51.26990 6.14200 34969 ft 476 kts 306°
2026-05-06 23:25 51.29101 6.10163 35153 ft 477 kts 310°
2026-05-06 23:25 51.31325 6.06218 35325 ft 478 kts 311°
2026-05-06 23:25 51.33574 6.02316 35493 ft 478 kts 311°
2026-05-06 23:26 51.35844 5.98417 35656 ft 478 kts 312°
2026-05-06 23:26 51.38111 5.94535 35796 ft 479 kts 312°
2026-05-06 23:26 51.40355 5.90688 35939 ft 480 kts 311°
2026-05-06 23:27 51.44938 5.82797 35969 ft 487 kts 311°
2026-05-06 23:27 51.49529 5.74844 35971 ft 485 kts 311°
2026-05-06 23:28 51.54098 5.66888 35966 ft 484 kts 311°
2026-05-06 23:28 51.58655 5.58934 35969 ft 484 kts 311°
2026-05-06 23:29 51.63207 5.50968 35966 ft 483 kts 311°
2026-05-06 23:29 51.67751 5.42990 35970 ft 484 kts 311°
2026-05-06 23:30 51.72288 5.34997 35974 ft 483 kts 311°
2026-05-06 23:30 51.75287 5.29703 35968 ft 482 kts 311°